Time,TemperatureF,DewpointF,PressureIn,WindDirection,WindDirectionDegrees,WindSpeedMPH,WindSpeedGustMPH,Humidity,HourlyPrecipIn,Conditions,Clouds,dailyrainin,SoftwareType,DateUTC
2013-07-29 00:02:00,55.8,50.7,29.81,NNE,23,0.4,1.8,83,0.00,,,0.00,WUHU216HW,2013-07-29 07:02:00,
2013-07-29 00:07:00,55.8,50.7,29.81,NNE,23,0.4,1.1,83,0.00,,,0.00,WUHU216HW,2013-07-29 07:07:00,
2013-07-29 00:12:00,55.8,50.7,29.81,North,0,0.0,1.1,83,0.00,,,0.00,WUHU216HW,2013-07-29 07:12:00,
2013-07-29 00:17:00,55.8,50.7,29.81,East,90,0.7,1.1,83,0.00,,,0.00,WUHU216HW,2013-07-29 07:17:00,
2013-07-29 00:22:00,55.8,50.7,29.81,NE,45,0.4,0.9,83,0.00,,,0.00,WUHU216HW,2013-07-29 07:22:00,
2013-07-29 00:27:00,55.8,50.7,29.82,NE,45,1.1,1.1,83,0.00,,,0.00,WUHU216HW,2013-07-29 07:27:00,
2013-07-29 00:32:00,55.8,50.7,29.82,NNE,23,0.4,1.1,83,0.00,,,0.00,WUHU216HW,2013-07-29 07:32:00,
2013-07-29 00:37:00,55.8,50.7,29.82,East,90,0.7,1.1,83,0.00,,,0.00,WUHU216HW,2013-07-29 07:37:00,
2013-07-29 00:42:00,55.6,50.8,29.82,ESE,113,0.7,1.1,84,0.00,,,0.00,WUHU216HW,2013-07-29 07:42:00,
2013-07-29 00:47:00,55.6,50.8,29.82,NNE,23,0.7,1.1,84,0.00,,,0.00,WUHU216HW,2013-07-29 07:47:00,
2013-07-29 00:52:00,55.4,50.6,29.82,ENE,68,0.2,0.9,84,0.00,,,0.00,WUHU216HW,2013-07-29 07:52:00,
2013-07-29 00:57:00,55.4,50.6,29.82,ENE,68,0.7,1.8,84,0.00,,,0.00,WUHU216HW,2013-07-29 07:57:00,
2013-07-29 01:02:00,55.4,50.6,29.82,NE,45,1.1,1.8,84,0.00,,,0.00,WUHU216HW,2013-07-29 08:02:00,
2013-07-29 01:07:00,55.3,50.5,29.82,NNE,23,2.5,2.5,84,0.00,,,0.00,WUHU216HW,2013-07-29 08:07:00,
2013-07-29 01:12:00,55.3,50.5,29.82,NE,45,1.1,2.5,84,0.00,,,0.00,WUHU216HW,2013-07-29 08:12:00,
2013-07-29 01:17:00,55.3,50.8,29.82,NE,45,1.1,1.3,85,0.00,,,0.00,WUHU216HW,2013-07-29 08:17:00,
2013-07-29 01:22:00,55.3,50.8,29.82,NNE,23,1.1,1.8,85,0.00,,,0.00,WUHU216HW,2013-07-29 08:22:00,
2013-07-29 01:27:00,55.3,50.8,29.82,ENE,68,1.1,1.8,85,0.00,,,0.00,WUHU216HW,2013-07-29 08:27:00,
2013-07-29 01:32:00,55.3,50.8,29.82,NE,45,1.6,1.6,85,0.00,,,0.00,WUHU216HW,2013-07-29 08:32:00,
2013-07-29 01:37:00,55.1,50.6,29.82,ENE,68,0.7,1.6,85,0.00,,,0.00,WUHU216HW,2013-07-29 08:37:00,
2013-07-29 01:42:00,55.1,50.6,29.82,NE,45,1.1,1.6,85,0.00,,,0.00,WUHU216HW,2013-07-29 08:42:00,
2013-07-29 01:47:00,55.1,50.6,29.82,East,90,0.7,1.6,85,0.00,,,0.00,WUHU216HW,2013-07-29 08:47:00,
2013-07-29 01:52:00,54.9,50.4,29.82,NE,45,1.1,2.0,85,0.00,,,0.00,WUHU216HW,2013-07-29 08:52:00,
2013-07-29 01:59:00,54.9,50.4,29.82,ENE,68,0.2,2.0,85,0.00,,,0.00,WUHU216HW,2013-07-29 08:59:00,
2013-07-29 02:04:00,54.9,50.4,29.82,South,180,0.0,1.1,85,0.00,,,0.00,WUHU216HW,2013-07-29 09:04:00,
2013-07-29 02:09:00,54.9,50.8,29.82,NNW,338,0.4,1.8,86,0.00,,,0.00,WUHU216HW,2013-07-29 09:09:00,
2013-07-29 02:14:00,55.1,51.0,29.82,NNE,23,0.4,1.8,86,0.00,,,0.00,WUHU216HW,2013-07-29 09:14:00,
2013-07-29 02:19:00,55.1,51.0,29.82,NNE,23,0.0,1.1,86,0.00,,,0.00,WUHU216HW,2013-07-29 09:19:00,
2013-07-29 02:24:00,55.1,51.0,29.82,NE,45,0.4,1.6,86,0.00,,,0.00,WUHU216HW,2013-07-29 09:24:00,
2013-07-29 02:29:00,54.9,50.8,29.82,NE,45,1.6,1.6,86,0.00,,,0.00,WUHU216HW,2013-07-29 09:29:00,
2013-07-29 02:34:00,54.9,50.8,29.82,NE,45,0.4,1.6,86,0.00,,,0.00,WUHU216HW,2013-07-29 09:34:00,
2013-07-29 02:39:00,54.7,50.6,29.82,NNE,23,0.7,1.1,86,0.00,,,0.00,WUHU216HW,2013-07-29 09:39:00,
2013-07-29 02:44:00,54.7,50.6,29.82,East,90,0.9,0.9,86,0.00,,,0.00,WUHU216HW,2013-07-29 09:44:00,
2013-07-29 02:49:00,54.7,50.6,29.82,NNW,338,0.4,1.3,86,0.00,,,0.00,WUHU216HW,2013-07-29 09:49:00,
2013-07-29 02:54:00,54.7,50.6,29.82,ESE,113,1.1,1.3,86,0.00,,,0.00,WUHU216HW,2013-07-29 09:54:00,
2013-07-29 02:59:00,54.7,50.6,29.82,East,90,1.1,1.1,86,0.00,,,0.00,WUHU216HW,2013-07-29 09:59:00,
2013-07-29 03:04:00,54.9,50.8,29.82,ENE,68,0.4,1.1,86,0.00,,,0.00,WUHU216HW,2013-07-29 10:04:00,
2013-07-29 03:09:00,54.9,50.8,29.83,ENE,68,0.4,1.1,86,0.00,,,0.00,WUHU216HW,2013-07-29 10:09:00,
2013-07-29 03:14:00,55.3,51.8,29.82,East,90,0.4,1.1,88,0.00,,,0.00,WUHU216HW,2013-07-29 10:14:00,
2013-07-29 03:19:00,55.3,51.8,29.82,NNW,338,0.2,1.1,88,0.00,,,0.00,WUHU216HW,2013-07-29 10:19:00,
2013-07-29 03:24:00,55.3,51.4,29.82,North,0,1.1,1.1,87,0.00,,,0.00,WUHU216HW,2013-07-29 10:24:00,
2013-07-29 03:29:00,55.3,51.4,29.82,North,0,0.0,1.1,87,0.00,,,0.00,WUHU216HW,2013-07-29 10:29:00,
2013-07-29 03:35:00,55.3,51.4,29.82,North,0,0.0,1.1,87,0.00,,,0.00,WUHU216HW,2013-07-29 10:35:00,
2013-07-29 03:40:00,55.3,51.4,29.82,North,0,0.9,0.9,87,0.00,,,0.00,WUHU216HW,2013-07-29 10:40:00,
2013-07-29 03:47:00,55.3,51.1,29.82,NNW,338,0.4,0.9,86,0.00,,,0.00,WUHU216HW,2013-07-29 10:47:00,
2013-07-29 03:52:00,55.3,51.1,29.82,SE,135,0.0,1.1,86,0.00,,,0.00,WUHU216HW,2013-07-29 10:52:00,
2013-07-29 03:57:00,55.1,51.0,29.82,NW,315,0.0,1.1,86,0.00,,,0.00,WUHU216HW,2013-07-29 10:57:00,
2013-07-29 04:02:00,55.1,51.0,29.82,NNW,338,0.0,0.4,86,0.00,,,0.00,WUHU216HW,2013-07-29 11:02:00,
2013-07-29 04:07:00,55.1,51.0,29.82,East,90,0.4,0.4,86,0.00,,,0.00,WUHU216HW,2013-07-29 11:07:00,
2013-07-29 04:12:00,55.1,51.2,29.82,NE,45,0.2,1.3,87,0.00,,,0.00,WUHU216HW,2013-07-29 11:12:00,
2013-07-29 04:17:00,54.9,51.0,29.82,NNE,23,1.3,1.3,87,0.00,,,0.00,WUHU216HW,2013-07-29 11:17:00,
2013-07-29 04:22:00,54.7,50.9,29.82,NNE,23,0.4,1.3,87,0.00,,,0.00,WUHU216HW,2013-07-29 11:22:00,
2013-07-29 04:27:00,54.5,50.8,29.82,NNE,23,0.0,0.9,87,0.00,,,0.00,WUHU216HW,2013-07-29 11:27:00,
2013-07-29 04:32:00,54.5,50.8,29.82,West,270,1.6,2.7,87,0.00,,,0.00,WUHU216HW,2013-07-29 11:32:00,
2013-07-29 04:37:00,54.7,50.9,29.82,WSW,248,1.3,2.7,87,0.00,,,0.00,WUHU216HW,2013-07-29 11:37:00,
2013-07-29 04:42:00,54.7,50.9,29.82,West,270,2.2,3.4,87,0.00,,,0.00,WUHU216HW,2013-07-29 11:42:00,
2013-07-29 04:47:00,54.7,50.6,29.82,SW,225,1.3,3.4,86,0.00,,,0.00,WUHU216HW,2013-07-29 11:47:00,
2013-07-29 04:52:00,54.7,50.6,29.82,West,270,3.4,3.4,86,0.00,,,0.00,WUHU216HW,2013-07-29 11:52:00,
2013-07-29 04:57:00,54.7,50.6,29.82,NW,315,2.0,4.7,86,0.00,,,0.00,WUHU216HW,2013-07-29 11:57:00,
2013-07-29 05:03:00,54.9,50.8,29.83,West,270,2.7,4.7,86,0.00,,,0.00,WUHU216HW,2013-07-29 12:03:00,
2013-07-29 05:08:00,55.1,50.6,29.83,SW,225,3.1,5.4,85,0.00,,,0.00,WUHU216HW,2013-07-29 12:08:00,
2013-07-29 05:13:00,55.1,50.6,29.83,SW,225,1.3,7.4,85,0.00,,,0.00,WUHU216HW,2013-07-29 12:13:00,
2013-07-29 05:18:00,55.1,50.3,29.83,SW,225,1.3,4.9,84,0.00,,,0.00,WUHU216HW,2013-07-29 12:18:00,
2013-07-29 05:23:00,55.1,50.6,29.83,SW,225,6.9,7.6,85,0.00,,,0.00,WUHU216HW,2013-07-29 12:23:00,
2013-07-29 05:29:00,55.1,50.6,29.83,SSW,203,6.9,7.6,85,0.00,,,0.00,WUHU216HW,2013-07-29 12:29:00,
2013-07-29 05:34:00,55.3,50.5,29.83,SSW,203,1.8,6.9,84,0.00,,,0.00,WUHU216HW,2013-07-29 12:34:00,
2013-07-29 05:39:00,55.3,50.5,29.84,North,0,0.9,6.9,84,0.00,,,0.00,WUHU216HW,2013-07-29 12:39:00,
2013-07-29 05:44:00,55.4,50.9,29.84,SW,225,4.5,7.2,85,0.00,,,0.00,WUHU216HW,2013-07-29 12:44:00,
2013-07-29 05:49:00,55.4,50.6,29.84,SSE,158,1.6,7.2,84,0.00,,,0.00,WUHU216HW,2013-07-29 12:49:00,
2013-07-29 05:54:00,55.3,50.5,29.84,North,0,0.0,4.7,84,0.00,,,0.00,WUHU216HW,2013-07-29 12:54:00,
2013-07-29 05:59:00,55.1,50.3,29.84,SSW,203,0.4,2.0,84,0.00,,,0.00,WUHU216HW,2013-07-29 12:59:00,
2013-07-29 06:04:00,54.9,50.1,29.84,SW,225,0.2,0.4,84,0.00,,,0.00,WUHU216HW,2013-07-29 13:04:00,
2013-07-29 06:09:00,54.5,49.8,29.84,NNW,338,0.4,0.4,84,0.00,,,0.00,WUHU216HW,2013-07-29 13:09:00,
2013-07-29 06:15:00,54.4,49.6,29.84,East,90,0.0,0.4,84,0.00,,,0.00,WUHU216HW,2013-07-29 13:15:00,
2013-07-29 06:20:00,54.2,49.4,29.84,East,90,0.7,1.1,84,0.00,,,0.00,WUHU216HW,2013-07-29 13:20:00,
2013-07-29 06:25:00,54.0,49.6,29.85,SW,225,0.9,1.1,85,0.00,,,0.00,WUHU216HW,2013-07-29 13:25:00,
2013-07-29 06:30:00,54.2,50.0,29.85,SW,225,2.2,6.3,86,0.00,,,0.00,WUHU216HW,2013-07-29 13:30:00,
2013-07-29 06:35:00,54.4,50.2,29.85,SSW,203,0.0,6.3,86,0.00,,,0.00,WUHU216HW,2013-07-29 13:35:00,
2013-07-29 06:41:00,54.2,50.0,29.85,North,0,0.4,1.8,86,0.00,,,0.00,WUHU216HW,2013-07-29 13:41:00,
2013-07-29 06:46:00,54.4,50.2,29.85,ENE,68,1.1,1.1,86,0.00,,,0.00,WUHU216HW,2013-07-29 13:46:00,
2013-07-29 06:52:00,54.4,50.2,29.85,NE,45,1.1,1.6,86,0.00,,,0.00,WUHU216HW,2013-07-29 13:52:00,
2013-07-29 06:57:00,54.5,50.4,29.86,NNE,23,1.6,1.6,86,0.00,,,0.00,WUHU216HW,2013-07-29 13:57:00,
2013-07-29 07:02:00,54.7,50.6,29.86,NE,45,1.8,1.8,86,0.00,,,0.00,WUHU216HW,2013-07-29 14:02:00,
2013-07-29 07:07:00,54.7,50.6,29.86,NE,45,1.1,1.8,86,0.00,,,0.00,WUHU216HW,2013-07-29 14:07:00,
2013-07-29 07:12:00,55.1,51.0,29.86,NNE,23,0.9,1.6,86,0.00,,,0.00,WUHU216HW,2013-07-29 14:12:00,
2013-07-29 07:17:00,55.3,51.1,29.87,North,0,1.8,1.8,86,0.00,,,0.00,WUHU216HW,2013-07-29 14:17:00,
2013-07-29 07:22:00,55.8,51.7,29.87,SSW,203,0.4,1.8,86,0.00,,,0.00,WUHU216HW,2013-07-29 14:22:00,
2013-07-29 07:27:00,56.0,51.5,29.87,NE,45,1.1,1.1,85,0.00,,,0.00,WUHU216HW,2013-07-29 14:27:00,
2013-07-29 07:32:00,56.5,51.7,29.87,WNW,293,0.4,1.1,84,0.00,,,0.00,WUHU216HW,2013-07-29 14:32:00,
2013-07-29 07:38:00,56.9,52.0,29.87,North,0,0.4,1.8,84,0.00,,,0.00,WUHU216HW,2013-07-29 14:38:00,
2013-07-29 07:42:00,57.2,52.4,29.87,SE,135,1.1,1.8,84,0.00,,,0.00,WUHU216HW,2013-07-29 14:42:00,
2013-07-29 07:47:00,57.8,52.7,29.88,South,180,2.0,2.0,83,0.00,,,0.00,WUHU216HW,2013-07-29 14:47:00,
2013-07-29 07:53:00,58.0,52.5,29.88,WNW,293,0.7,2.0,82,0.00,,,0.00,WUHU216HW,2013-07-29 14:53:00,
2013-07-29 07:58:00,58.3,52.2,29.88,West,270,1.3,3.1,80,0.00,,,0.00,WUHU216HW,2013-07-29 14:58:00,
2013-07-29 08:03:00,58.7,52.2,29.88,SSW,203,3.4,4.0,79,0.00,,,0.00,WUHU216HW,2013-07-29 15:03:00,
2013-07-29 08:08:00,59.2,52.4,29.88,WNW,293,1.8,5.4,78,0.00,,,0.00,WUHU216HW,2013-07-29 15:08:00,
2013-07-29 08:13:00,59.6,52.4,29.89,SW,225,4.0,5.4,77,0.00,,,0.00,WUHU216HW,2013-07-29 15:13:00,
2013-07-29 08:18:00,59.9,52.4,29.89,WSW,248,2.5,6.9,76,0.00,,,0.00,WUHU216HW,2013-07-29 15:18:00,
2013-07-29 08:23:00,60.3,52.7,29.89,WSW,248,7.6,7.6,76,0.00,,,0.00,WUHU216HW,2013-07-29 15:23:00,
2013-07-29 08:29:00,60.7,52.7,29.89,WNW,293,6.3,7.6,75,0.00,,,0.00,WUHU216HW,2013-07-29 15:29:00,
2013-07-29 08:34:00,60.8,52.9,29.89,West,270,3.1,6.3,75,0.00,,,0.00,WUHU216HW,2013-07-29 15:34:00,
2013-07-29 08:39:00,61.4,53.0,29.89,WSW,248,6.7,6.7,74,0.00,,,0.00,WUHU216HW,2013-07-29 15:39:00,
2013-07-29 08:44:00,61.7,53.0,29.89,SSW,203,3.4,6.7,73,0.00,,,0.00,WUHU216HW,2013-07-29 15:44:00,
2013-07-29 08:49:00,62.3,53.5,29.90,SSW,203,4.0,4.5,73,0.00,,,0.00,WUHU216HW,2013-07-29 15:49:00,
2013-07-29 08:54:00,62.8,54.0,29.90,East,90,1.1,4.0,73,0.00,,,0.00,WUHU216HW,2013-07-29 15:54:00,
2013-07-29 08:59:00,63.4,54.2,29.90,West,270,4.3,4.3,72,0.00,,,0.00,WUHU216HW,2013-07-29 15:59:00,
2013-07-29 09:04:00,63.5,53.2,29.90,SSW,203,4.7,4.7,69,0.00,,,0.00,WUHU216HW,2013-07-29 16:04:00,
2013-07-29 09:10:00,63.7,53.8,29.90,South,180,1.1,4.7,70,0.00,,,0.00,WUHU216HW,2013-07-29 16:10:00,
2013-07-29 09:15:00,64.1,54.2,29.90,WNW,293,5.4,6.9,70,0.00,,,0.00,WUHU216HW,2013-07-29 16:15:00,
2013-07-29 09:20:00,64.3,54.4,29.90,WSW,248,5.1,6.9,70,0.00,,,0.00,WUHU216HW,2013-07-29 16:20:00,
2013-07-29 09:25:00,64.6,54.3,29.90,WNW,293,5.8,6.7,69,0.00,,,0.00,WUHU216HW,2013-07-29 16:25:00,
2013-07-29 09:30:00,64.6,53.8,29.90,WSW,248,4.5,6.7,68,0.00,,,0.00,WUHU216HW,2013-07-29 16:30:00,
2013-07-29 09:36:00,64.6,53.8,29.90,SSW,203,3.1,5.8,68,0.00,,,0.00,WUHU216HW,2013-07-29 16:36:00,
2013-07-29 09:41:00,65.0,54.2,29.90,NW,315,4.0,5.6,68,0.00,,,0.00,WUHU216HW,2013-07-29 16:41:00,
2013-07-29 09:46:00,65.3,54.1,29.90,NW,315,5.6,5.6,67,0.00,,,0.00,WUHU216HW,2013-07-29 16:46:00,
2013-07-29 09:51:00,65.7,54.5,29.91,SW,225,4.0,7.2,67,0.00,,,0.00,WUHU216HW,2013-07-29 16:51:00,
2013-07-29 09:56:00,65.9,53.7,29.91,West,270,5.8,7.2,65,0.00,,,0.00,WUHU216HW,2013-07-29 16:56:00,
2013-07-29 10:01:00,66.1,53.9,29.91,WNW,293,9.2,9.2,65,0.00,,,0.00,WUHU216HW,2013-07-29 17:01:00,
2013-07-29 10:06:00,66.1,53.9,29.91,West,270,6.9,9.2,65,0.00,,,0.00,WUHU216HW,2013-07-29 17:06:00,
2013-07-29 10:11:00,66.6,54.5,29.91,West,270,4.0,7.6,65,0.00,,,0.00,WUHU216HW,2013-07-29 17:11:00,
2013-07-29 10:16:00,66.6,54.0,29.91,WSW,248,5.4,9.4,64,0.00,,,0.00,WUHU216HW,2013-07-29 17:16:00,
2013-07-29 10:21:00,67.0,54.4,29.91,WNW,293,3.4,9.4,64,0.00,,,0.00,WUHU216HW,2013-07-29 17:21:00,
2013-07-29 10:27:00,67.1,54.1,29.91,WNW,293,6.3,6.7,63,0.00,,,0.00,WUHU216HW,2013-07-29 17:27:00,
2013-07-29 10:32:00,67.3,54.7,29.91,SSW,203,4.5,9.2,64,0.00,,,0.00,WUHU216HW,2013-07-29 17:32:00,
2013-07-29 10:37:00,68.0,54.9,29.91,West,270,5.8,9.2,63,0.00,,,0.00,WUHU216HW,2013-07-29 17:37:00,
2013-07-29 10:42:00,68.8,55.2,29.92,West,270,3.1,5.8,62,0.00,,,0.00,WUHU216HW,2013-07-29 17:42:00,
2013-07-29 10:47:00,69.1,55.5,29.92,WNW,293,6.9,6.9,62,0.00,,,0.00,WUHU216HW,2013-07-29 17:47:00,
2013-07-29 10:53:00,69.5,54.1,29.92,WNW,293,3.4,6.9,58,0.00,,,0.00,WUHU216HW,2013-07-29 17:53:00,
2013-07-29 10:58:00,69.7,54.3,29.92,South,180,4.0,6.3,58,0.00,,,0.00,WUHU216HW,2013-07-29 17:58:00,
2013-07-29 11:03:00,70.0,54.6,29.92,WNW,293,4.7,7.6,58,0.00,,,0.00,WUHU216HW,2013-07-29 18:03:00,
2013-07-29 11:09:00,70.4,55.9,29.92,WSW,248,4.5,7.6,60,0.00,,,0.00,WUHU216HW,2013-07-29 18:09:00,
2013-07-29 11:14:00,70.7,54.7,29.92,SW,225,3.4,7.2,57,0.00,,,0.00,WUHU216HW,2013-07-29 18:14:00,
2013-07-29 11:19:00,71.1,56.1,29.92,SSW,203,3.1,6.7,59,0.00,,,0.00,WUHU216HW,2013-07-29 18:19:00,
2013-07-29 11:24:00,71.5,54.9,29.92,West,270,5.4,7.2,56,0.00,,,0.00,WUHU216HW,2013-07-29 18:24:00,
2013-07-29 11:29:00,71.3,55.3,29.92,NNW,338,4.7,7.2,57,0.00,,,0.00,WUHU216HW,2013-07-29 18:29:00,
2013-07-29 11:35:00,71.3,55.3,29.92,WSW,248,4.9,7.8,57,0.00,,,0.00,WUHU216HW,2013-07-29 18:35:00,
2013-07-29 11:40:00,71.6,55.5,29.92,SW,225,6.3,7.8,57,0.00,,,0.00,WUHU216HW,2013-07-29 18:40:00,
2013-07-29 11:45:00,72.0,55.4,29.92,West,270,5.4,6.5,56,0.00,,,0.00,WUHU216HW,2013-07-29 18:45:00,
2013-07-29 11:50:00,72.4,55.7,29.92,WSW,248,2.9,6.3,56,0.00,,,0.00,WUHU216HW,2013-07-29 18:50:00,
2013-07-29 11:56:00,72.5,55.4,29.92,WSW,248,6.0,6.0,55,0.00,,,0.00,WUHU216HW,2013-07-29 18:56:00,
2013-07-29 12:01:00,72.5,54.8,29.92,NW,315,1.6,6.0,54,0.00,,,0.00,WUHU216HW,2013-07-29 19:01:00,
2013-07-29 12:06:00,72.9,55.2,29.92,SSW,203,5.1,8.3,54,0.00,,,0.00,WUHU216HW,2013-07-29 19:06:00,
2013-07-29 12:11:00,73.3,55.5,29.92,WSW,248,6.9,8.5,54,0.00,,,0.00,WUHU216HW,2013-07-29 19:11:00,
2013-07-29 12:17:00,73.4,55.2,29.92,WSW,248,3.1,6.9,53,0.00,,,0.00,WUHU216HW,2013-07-29 19:17:00,
2013-07-29 12:22:00,73.8,55.0,29.92,NW,315,2.5,5.4,52,0.00,,,0.00,WUHU216HW,2013-07-29 19:22:00,
2013-07-29 12:27:00,74.2,56.3,29.92,SSE,158,4.0,7.2,54,0.00,,,0.00,WUHU216HW,2013-07-29 19:27:00,
2013-07-29 12:32:00,74.2,54.9,29.92,WSW,248,1.1,7.2,51,0.00,,,0.00,WUHU216HW,2013-07-29 19:32:00,
2013-07-29 12:37:00,74.2,55.9,29.92,WSW,248,7.4,7.4,53,0.00,,,0.00,WUHU216HW,2013-07-29 19:37:00,
2013-07-29 12:42:00,74.2,55.9,29.92,WNW,293,4.5,7.4,53,0.00,,,0.00,WUHU216HW,2013-07-29 19:42:00,
2013-07-29 12:47:00,74.5,56.3,29.92,WNW,293,6.9,7.4,53,0.00,,,0.00,WUHU216HW,2013-07-29 19:47:00,
2013-07-29 12:52:00,74.7,55.9,29.92,WNW,293,4.3,7.4,52,0.00,,,0.00,WUHU216HW,2013-07-29 19:52:00,
2013-07-29 12:57:00,75.1,56.8,29.92,West,270,3.8,7.2,53,0.00,,,0.00,WUHU216HW,2013-07-29 19:57:00,
2013-07-29 13:02:00,75.6,55.8,29.92,WNW,293,6.7,8.7,50,0.00,,,0.00,WUHU216HW,2013-07-29 20:02:00,
2013-07-29 13:08:00,75.4,55.6,29.92,WNW,293,5.4,8.7,50,0.00,,,0.00,WUHU216HW,2013-07-29 20:08:00,
2013-07-29 13:13:00,75.8,57.0,29.92,West,270,3.4,7.8,52,0.00,,,0.00,WUHU216HW,2013-07-29 20:13:00,
2013-07-29 13:18:00,76.3,56.9,29.91,WSW,248,3.4,7.8,51,0.00,,,0.00,WUHU216HW,2013-07-29 20:18:00,
2013-07-29 13:23:00,76.5,56.6,29.91,NW,315,3.4,7.6,50,0.00,,,0.00,WUHU216HW,2013-07-29 20:23:00,
2013-07-29 13:28:00,76.9,56.3,29.91,West,270,4.7,6.3,49,0.00,,,0.00,WUHU216HW,2013-07-29 20:28:00,
2013-07-29 13:33:00,77.0,56.4,29.91,SW,225,5.1,6.3,49,0.00,,,0.00,WUHU216HW,2013-07-29 20:33:00,
2013-07-29 13:38:00,77.2,56.0,29.92,NW,315,3.8,6.7,48,0.00,,,0.00,WUHU216HW,2013-07-29 20:38:00,
2013-07-29 13:43:00,77.4,56.8,29.91,NW,315,6.9,6.9,49,0.00,,,0.00,WUHU216HW,2013-07-29 20:43:00,
2013-07-29 13:48:00,77.8,56.5,29.91,West,270,6.3,6.9,48,0.00,,,0.00,WUHU216HW,2013-07-29 20:48:00,
2013-07-29 13:53:00,78.1,56.2,29.91,NNW,338,8.3,8.3,47,0.00,,,0.00,WUHU216HW,2013-07-29 20:53:00,
2013-07-29 13:58:00,78.1,56.8,29.91,North,0,4.0,8.3,48,0.00,,,0.00,WUHU216HW,2013-07-29 20:58:00,
2013-07-29 14:03:00,78.3,57.0,29.91,WNW,293,4.3,6.7,48,0.00,,,0.00,WUHU216HW,2013-07-29 21:03:00,
2013-07-29 14:08:00,79.0,57.6,29.91,SSW,203,2.9,6.7,48,0.00,,,0.00,WUHU216HW,2013-07-29 21:08:00,
2013-07-29 14:13:00,79.2,56.0,29.91,SSW,203,4.9,9.8,45,0.00,,,0.00,WUHU216HW,2013-07-29 21:13:00,
2013-07-29 14:19:00,79.6,56.3,29.91,WSW,248,5.6,9.8,45,0.00,,,0.00,WUHU216HW,2013-07-29 21:19:00,
2013-07-29 14:24:00,79.4,56.7,29.91,North,0,4.0,7.2,46,0.00,,,0.00,WUHU216HW,2013-07-29 21:24:00,
2013-07-29 14:29:00,79.4,57.3,29.91,NW,315,3.8,7.2,47,0.00,,,0.00,WUHU216HW,2013-07-29 21:29:00,
2013-07-29 14:34:00,79.4,57.3,29.91,WNW,293,4.0,7.2,47,0.00,,,0.00,WUHU216HW,2013-07-29 21:34:00,
2013-07-29 14:39:00,79.7,57.1,29.91,WSW,248,3.6,7.2,46,0.00,,,0.00,WUHU216HW,2013-07-29 21:39:00,
2013-07-29 14:44:00,80.1,57.3,29.91,WNW,293,2.5,6.3,46,0.00,,,0.00,WUHU216HW,2013-07-29 21:44:00,
2013-07-29 14:49:00,80.3,57.5,29.91,South,180,4.9,7.6,46,0.00,,,0.00,WUHU216HW,2013-07-29 21:49:00,
2013-07-29 14:54:00,80.3,57.5,29.91,NW,315,1.8,7.6,46,0.00,,,0.00,WUHU216HW,2013-07-29 21:54:00,
2013-07-29 14:59:00,80.3,57.5,29.91,WNW,293,3.8,7.2,46,0.00,,,0.00,WUHU216HW,2013-07-29 21:59:00,
2013-07-29 15:05:00,80.1,57.3,29.91,WNW,293,8.3,8.3,46,0.00,,,0.00,WUHU216HW,2013-07-29 22:05:00,
2013-07-29 15:10:00,79.9,57.3,29.91,West,270,4.0,8.3,46,0.00,,,0.00,WUHU216HW,2013-07-29 22:10:00,
2013-07-29 15:15:00,79.9,57.3,29.91,WNW,293,8.9,8.9,46,0.00,,,0.00,WUHU216HW,2013-07-29 22:15:00,
2013-07-29 15:20:00,79.7,57.7,29.91,SW,225,2.9,8.9,47,0.00,,,0.00,WUHU216HW,2013-07-29 22:20:00,
2013-07-29 15:25:00,80.1,58.0,29.91,WNW,293,6.5,9.2,47,0.00,,,0.00,WUHU216HW,2013-07-29 22:25:00,
2013-07-29 15:30:00,79.6,56.9,29.90,WNW,293,6.3,9.2,46,0.00,,,0.00,WUHU216HW,2013-07-29 22:30:00,
2013-07-29 15:35:00,79.2,56.5,29.91,WSW,248,6.9,9.2,46,0.00,,,0.00,WUHU216HW,2013-07-29 22:35:00,
2013-07-29 15:40:00,79.0,57.0,29.91,WNW,293,2.9,7.6,47,0.00,,,0.00,WUHU216HW,2013-07-29 22:40:00,
2013-07-29 15:45:00,79.2,57.2,29.90,West,270,7.2,7.4,47,0.00,,,0.00,WUHU216HW,2013-07-29 22:45:00,
2013-07-29 15:50:00,79.0,57.0,29.90,WSW,248,6.3,7.6,47,0.00,,,0.00,WUHU216HW,2013-07-29 22:50:00,
2013-07-29 15:55:00,78.8,56.9,29.90,West,270,7.2,7.6,47,0.00,,,0.00,WUHU216HW,2013-07-29 22:55:00,
2013-07-29 16:01:00,78.3,57.6,29.90,NNW,338,4.0,7.2,49,0.00,,,0.00,WUHU216HW,2013-07-29 23:01:00,
2013-07-29 16:06:00,78.1,57.4,29.90,WNW,293,4.3,7.2,49,0.00,,,0.00,WUHU216HW,2013-07-29 23:06:00,
2013-07-29 16:11:00,77.8,57.1,29.90,WNW,293,5.1,9.6,49,0.00,,,0.00,WUHU216HW,2013-07-29 23:11:00,
2013-07-29 16:16:00,77.4,56.8,29.90,NW,315,4.5,9.6,49,0.00,,,0.00,WUHU216HW,2013-07-29 23:16:00,
2013-07-29 16:21:00,77.2,57.3,29.90,WSW,248,3.8,8.9,50,0.00,,,0.00,WUHU216HW,2013-07-29 23:21:00,
2013-07-29 16:26:00,77.2,57.3,29.91,WNW,293,5.8,8.9,50,0.00,,,0.00,WUHU216HW,2013-07-29 23:26:00,
2013-07-29 16:31:00,76.7,57.2,29.91,West,270,7.6,8.7,51,0.00,,,0.00,WUHU216HW,2013-07-29 23:31:00,
2013-07-29 16:37:00,76.3,56.9,29.90,West,270,7.8,9.2,51,0.00,,,0.00,WUHU216HW,2013-07-29 23:37:00,
2013-07-29 16:42:00,75.8,57.0,29.90,WNW,293,9.2,9.2,52,0.00,,,0.00,WUHU216HW,2013-07-29 23:42:00,
2013-07-29 16:47:00,75.2,56.4,29.91,NNW,338,2.7,9.2,52,0.00,,,0.00,WUHU216HW,2013-07-29 23:47:00,
2013-07-29 16:52:00,75.2,56.4,29.91,WNW,293,6.5,9.6,52,0.00,,,0.00,WUHU216HW,2013-07-29 23:52:00,
2013-07-29 16:57:00,75.1,56.8,29.90,NW,315,4.7,10.7,53,0.00,,,0.00,WUHU216HW,2013-07-29 23:57:00,
2013-07-29 17:02:00,74.9,56.6,29.91,West,270,7.6,11.6,53,0.00,,,0.00,WUHU216HW,2013-07-30 00:02:00,
2013-07-29 17:07:00,74.3,56.1,29.91,NW,315,5.4,11.6,53,0.00,,,0.00,WUHU216HW,2013-07-30 00:07:00,
2013-07-29 17:12:00,73.8,56.0,29.91,WSW,248,8.3,13.2,54,0.00,,,0.00,WUHU216HW,2013-07-30 00:12:00,
2013-07-29 17:17:00,73.3,56.0,29.91,SW,225,8.5,13.2,55,0.00,,,0.00,WUHU216HW,2013-07-30 00:17:00,
2013-07-29 17:22:00,72.9,56.2,29.91,SW,225,6.5,12.5,56,0.00,,,0.00,WUHU216HW,2013-07-30 00:22:00,
2013-07-29 17:27:00,72.5,55.9,29.91,WSW,248,8.9,10.5,56,0.00,,,0.00,WUHU216HW,2013-07-30 00:27:00,
2013-07-29 17:32:00,72.2,55.5,29.91,WSW,248,10.1,10.5,56,0.00,,,0.00,WUHU216HW,2013-07-30 00:32:00,
2013-07-29 17:37:00,71.3,55.3,29.91,West,270,8.7,10.1,57,0.00,,,0.00,WUHU216HW,2013-07-30 00:37:00,
2013-07-29 17:42:00,70.7,55.3,29.91,SW,225,7.8,12.1,58,0.00,,,0.00,WUHU216HW,2013-07-30 00:42:00,
2013-07-29 17:47:00,70.0,55.1,29.92,WSW,248,9.2,12.1,59,0.00,,,0.00,WUHU216HW,2013-07-30 00:47:00,
2013-07-29 17:52:00,69.3,54.4,29.92,WSW,248,10.5,15.7,59,0.00,,,0.00,WUHU216HW,2013-07-30 00:52:00,
2013-07-29 17:58:00,68.8,54.4,29.92,WSW,248,9.8,15.7,60,0.00,,,0.00,WUHU216HW,2013-07-30 00:58:00,
2013-07-29 18:03:00,68.4,54.5,29.92,NW,315,7.6,13.0,61,0.00,,,0.00,WUHU216HW,2013-07-30 01:03:00,
2013-07-29 18:08:00,68.0,54.6,29.92,SW,225,9.8,12.5,62,0.00,,,0.00,WUHU216HW,2013-07-30 01:08:00,
2013-07-29 18:13:00,67.3,54.3,29.92,SW,225,11.6,12.5,63,0.00,,,0.00,WUHU216HW,2013-07-30 01:13:00,
2013-07-29 18:18:00,66.8,54.2,29.92,West,270,9.6,13.4,64,0.00,,,0.00,WUHU216HW,2013-07-30 01:18:00,
2013-07-29 18:23:00,66.1,53.9,29.92,West,270,12.1,12.1,65,0.00,,,0.00,WUHU216HW,2013-07-30 01:23:00,
2013-07-29 18:28:00,65.9,53.7,29.92,SSW,203,6.7,12.1,65,0.00,,,0.00,WUHU216HW,2013-07-30 01:28:00,
2013-07-29 18:34:00,65.5,53.4,29.92,West,270,6.3,10.5,65,0.00,,,0.00,WUHU216HW,2013-07-30 01:34:00,
2013-07-29 18:39:00,65.3,53.6,29.92,WNW,293,6.9,9.8,66,0.00,,,0.00,WUHU216HW,2013-07-30 01:39:00,
2013-07-29 18:44:00,65.0,53.3,29.92,West,270,6.3,8.5,66,0.00,,,0.00,WUHU216HW,2013-07-30 01:44:00,
2013-07-29 18:49:00,64.4,53.3,29.92,WNW,293,5.4,9.8,67,0.00,,,0.00,WUHU216HW,2013-07-30 01:49:00,
2013-07-29 18:54:00,64.3,53.5,29.92,West,270,6.5,10.1,68,0.00,,,0.00,WUHU216HW,2013-07-30 01:54:00,
2013-07-29 18:59:00,64.1,53.3,29.92,WSW,248,6.9,10.1,68,0.00,,,0.00,WUHU216HW,2013-07-30 01:59:00,
2013-07-29 19:04:00,63.7,53.0,29.92,WSW,248,6.7,7.8,68,0.00,,,0.00,WUHU216HW,2013-07-30 02:04:00,
2013-07-29 19:09:00,63.4,53.0,29.92,West,270,4.7,7.2,69,0.00,,,0.00,WUHU216HW,2013-07-30 02:09:00,
2013-07-29 19:14:00,63.0,52.7,29.92,West,270,5.4,7.2,69,0.00,,,0.00,WUHU216HW,2013-07-30 02:14:00,
2013-07-29 19:19:00,62.6,52.7,29.92,West,270,2.5,10.3,70,0.00,,,0.00,WUHU216HW,2013-07-30 02:19:00,
2013-07-29 19:24:00,62.5,52.9,29.92,NW,315,7.2,10.3,71,0.00,,,0.00,WUHU216HW,2013-07-30 02:24:00,
2013-07-29 19:29:00,62.3,53.1,29.93,West,270,6.0,8.5,72,0.00,,,0.00,WUHU216HW,2013-07-30 02:29:00,
2013-07-29 19:34:00,61.9,52.5,29.92,WNW,293,6.5,8.5,71,0.00,,,0.00,WUHU216HW,2013-07-30 02:34:00,
2013-07-29 19:39:00,61.6,52.5,29.93,West,270,5.6,8.5,72,0.00,,,0.00,WUHU216HW,2013-07-30 02:39:00,
2013-07-29 19:45:00,61.2,52.6,29.93,West,270,3.6,8.5,73,0.00,,,0.00,WUHU216HW,2013-07-30 02:45:00,
2013-07-29 19:50:00,61.0,52.4,29.93,NW,315,2.9,6.3,73,0.00,,,0.00,WUHU216HW,2013-07-30 02:50:00,
2013-07-29 19:55:00,60.8,52.2,29.93,NW,315,2.2,7.2,73,0.00,,,0.00,WUHU216HW,2013-07-30 02:55:00,
2013-07-29 20:00:00,60.7,52.0,29.93,SW,225,4.0,7.2,73,0.00,,,0.00,WUHU216HW,2013-07-30 03:00:00,
2013-07-29 20:05:00,60.5,51.8,29.93,WNW,293,1.3,5.6,73,0.00,,,0.00,WUHU216HW,2013-07-30 03:05:00,
2013-07-29 20:10:00,60.3,52.0,29.93,WNW,293,1.3,5.6,74,0.00,,,0.00,WUHU216HW,2013-07-30 03:10:00,
2013-07-29 20:15:00,59.9,52.0,29.93,West,270,2.2,6.9,75,0.00,,,0.00,WUHU216HW,2013-07-30 03:15:00,
2013-07-29 20:20:00,59.6,52.0,29.93,WSW,248,5.4,6.9,76,0.00,,,0.00,WUHU216HW,2013-07-30 03:20:00,
2013-07-29 20:26:00,59.4,51.5,29.93,NNE,23,2.2,5.4,75,0.00,,,0.00,WUHU216HW,2013-07-30 03:26:00,
2013-07-29 20:32:00,59.2,51.7,29.93,North,0,0.9,4.7,76,0.00,,,0.00,WUHU216HW,2013-07-30 03:32:00,
2013-07-29 20:37:00,59.0,51.5,29.94,WNW,293,1.3,4.7,76,0.00,,,0.00,WUHU216HW,2013-07-30 03:37:00,
2013-07-29 20:42:00,59.0,51.5,29.94,WNW,293,1.3,2.7,76,0.00,,,0.00,WUHU216HW,2013-07-30 03:42:00,
2013-07-29 20:47:00,58.7,51.5,29.94,WNW,293,0.4,2.7,77,0.00,,,0.00,WUHU216HW,2013-07-30 03:47:00,
2013-07-29 20:52:00,58.7,51.5,29.94,North,0,0.9,2.7,77,0.00,,,0.00,WUHU216HW,2013-07-30 03:52:00,
2013-07-29 20:57:00,58.5,51.3,29.94,North,0,0.0,2.7,77,0.00,,,0.00,WUHU216HW,2013-07-30 03:57:00,
2013-07-29 21:01:00,58.5,51.3,29.94,North,0,0.4,1.3,77,0.00,,,0.00,WUHU216HW,2013-07-30 04:01:00,
2013-07-29 21:02:00,58.5,51.3,29.95,NW,315,0.4,1.3,77,0.00,,,0.00,WUHU216HW,2013-07-30 04:02:00,
2013-07-29 21:07:00,58.3,51.5,29.95,NNW,338,0.4,0.9,78,0.00,,,0.00,WUHU216HW,2013-07-30 04:07:00,
2013-07-29 21:12:00,58.3,51.5,29.95,NNW,338,0.4,1.1,78,0.00,,,0.00,WUHU216HW,2013-07-30 04:12:00,
2013-07-29 21:17:00,58.3,51.1,29.95,North,0,0.4,1.1,77,0.00,,,0.00,WUHU216HW,2013-07-30 04:17:00,
2013-07-29 21:22:00,58.1,51.3,29.95,WNW,293,2.0,2.2,78,0.00,,,0.00,WUHU216HW,2013-07-30 04:22:00,
2013-07-29 21:27:00,58.0,51.1,29.95,North,0,1.1,2.2,78,0.00,,,0.00,WUHU216HW,2013-07-30 04:27:00,
2013-07-29 21:32:00,58.0,51.5,29.96,North,0,0.4,1.6,79,0.00,,,0.00,WUHU216HW,2013-07-30 04:32:00,
2013-07-29 21:37:00,58.0,51.1,29.96,WNW,293,0.0,0.9,78,0.00,,,0.00,WUHU216HW,2013-07-30 04:37:00,
2013-07-29 21:42:00,57.8,51.3,29.96,West,270,0.4,1.8,79,0.00,,,0.00,WUHU216HW,2013-07-30 04:42:00,
2013-07-29 21:47:00,57.6,51.1,29.96,NW,315,1.8,1.8,79,0.00,,,0.00,WUHU216HW,2013-07-30 04:47:00,
2013-07-29 21:52:00,57.6,51.1,29.97,NNW,338,0.0,1.8,79,0.00,,,0.00,WUHU216HW,2013-07-30 04:52:00,
2013-07-29 21:57:00,57.4,50.9,29.97,WNW,293,0.2,0.9,79,0.00,,,0.00,WUHU216HW,2013-07-30 04:57:00,
2013-07-29 22:02:00,57.2,51.1,29.97,NW,315,0.0,1.8,80,0.00,,,0.00,WUHU216HW,2013-07-30 05:02:00,
2013-07-29 22:07:00,57.2,51.1,29.97,WNW,293,1.3,1.8,80,0.00,,,0.00,WUHU216HW,2013-07-30 05:07:00,
2013-07-29 22:12:00,57.1,50.9,29.97,West,270,1.8,3.4,80,0.00,,,0.00,WUHU216HW,2013-07-30 05:12:00,
2013-07-29 22:17:00,57.1,51.3,29.97,West,270,1.1,3.4,81,0.00,,,0.00,WUHU216HW,2013-07-30 05:17:00,
2013-07-29 22:22:00,56.9,51.1,29.97,WNW,293,0.7,2.5,81,0.00,,,0.00,WUHU216HW,2013-07-30 05:22:00,
2013-07-29 22:27:00,56.9,51.1,29.97,West,270,1.3,3.4,81,0.00,,,0.00,WUHU216HW,2013-07-30 05:27:00,
2013-07-29 22:32:00,56.7,51.0,29.97,NNW,338,0.2,3.4,81,0.00,,,0.00,WUHU216HW,2013-07-30 05:32:00,
2013-07-29 22:37:00,56.7,51.0,29.97,NW,315,0.4,3.4,81,0.00,,,0.00,WUHU216HW,2013-07-30 05:37:00,
2013-07-29 22:42:00,56.5,51.0,29.97,NNW,338,1.3,3.4,82,0.00,,,0.00,WUHU216HW,2013-07-30 05:42:00,
2013-07-29 22:47:00,56.5,51.4,29.97,WNW,293,1.8,5.4,83,0.00,,,0.00,WUHU216HW,2013-07-30 05:47:00,
2013-07-29 22:53:00,56.5,51.0,29.97,WNW,293,0.7,5.4,82,0.00,,,0.00,WUHU216HW,2013-07-30 05:53:00,
2013-07-29 22:57:00,56.5,51.0,29.97,WNW,293,2.5,2.9,82,0.00,,,0.00,WUHU216HW,2013-07-30 05:57:00,
2013-07-29 23:03:00,56.3,50.9,29.97,NW,315,4.0,4.0,82,0.00,,,0.00,WUHU216HW,2013-07-30 06:03:00,
2013-07-29 23:07:00,56.2,50.7,29.97,North,0,0.4,4.0,82,0.00,,,0.00,WUHU216HW,2013-07-30 06:07:00,
2013-07-29 23:13:00,56.2,50.7,29.97,NNW,338,0.9,1.8,82,0.00,,,0.00,WUHU216HW,2013-07-30 06:13:00,
2013-07-29 23:17:00,56.2,50.7,29.96,North,0,0.2,2.2,82,0.00,,,0.00,WUHU216HW,2013-07-30 06:17:00,
2013-07-29 23:23:00,56.2,50.7,29.97,WNW,293,1.8,2.2,82,0.00,,,0.00,WUHU216HW,2013-07-30 06:23:00,
2013-07-29 23:28:00,56.2,50.7,29.97,North,0,1.8,1.8,82,0.00,,,0.00,WUHU216HW,2013-07-30 06:28:00,
2013-07-29 23:33:00,56.2,50.7,29.97,NNE,23,0.9,2.5,82,0.00,,,0.00,WUHU216HW,2013-07-30 06:33:00,
2013-07-29 23:38:00,56.0,50.5,29.97,East,90,1.6,2.5,82,0.00,,,0.00,WUHU216HW,2013-07-30 06:38:00,
2013-07-29 23:43:00,56.0,50.9,29.97,NW,315,0.9,2.0,83,0.00,,,0.00,WUHU216HW,2013-07-30 06:43:00,
2013-07-29 23:48:00,56.0,50.9,29.97,NNE,23,0.0,2.0,83,0.00,,,0.00,WUHU216HW,2013-07-30 06:48:00,
2013-07-29 23:53:00,55.8,50.7,29.97,East,90,0.4,1.8,83,0.00,,,0.00,WUHU216HW,2013-07-30 06:53:00,
2013-07-29 23:58:00,55.8,50.7,29.97,ESE,113,0.9,1.8,83,0.00,,,0.00,WUHU216HW,2013-07-30 06:58:00,